[[{"header":{"parameterUnit":"m.s-1","parameterCategory":2,"la1":30.2992,"la2":30.254,"lo1":-89.0895,"lo2":-89.0443,"dy":0.0025,"dx":0.0025,"nx":19,"ny":19,"refTime":"2026-05-20T21:00:00:Z","depth":"0","parameterNumber":2,"parameterNumberName":"U-component_of_CURRENTS"},"data":[0,0,0,-0.1403,-0.1403,-0.1424,-0.1424,-0.1398,-0.1397,0,0,0,0,0,0,0,0,0,0,0,-0.1387,-0.1387,-0.1402,-0.1403,-0.1424,-0.1424,-0.1398,-0.1397,0,0,0,0,0,0,0,0,0,0,0,-0.1387,-0.1387,-0.1387,-0.1403,-0.1424,-0.1424,-0.1398,-0.1394,0,0,0,0,0,0,0,0,0,0,-0.1381,-0.137,-0.1387,-0.1387,-0.1403,-0.1424,-0.1424,-0.1395,-0.1395,-0.1374,0,-0.1374,0,-0.1389,-0.1395,-0.1394,0,0,0,-0.14,-0.1371,-0.1382,-0.1387,-0.1404,-0.1424,-0.1414,-0.1395,-0.1395,-0.1374,-0.1374,-0.1374,-0.1389,-0.1394,-0.1394,-0.1351,-0.1351,0,0,-0.1399,-0.1384,-0.1383,-0.1382,-0.1404,-0.1413,-0.1414,-0.1395,-0.1388,-0.1374,-0.1374,-0.1388,-0.1394,-0.1394,-0.1351,-0.1351,0,0,0,-0.1398,-0.1383,-0.1396,-0.1382,-0.1393,-0.1414,-0.1415,-0.1389,-0.1395,-0.1374,-0.1388,-0.1394,-0.1393,-0.1351,-0.1351,-0.1401,0,0,0,-0.1397,-0.1383,-0.1395,-0.1386,-0.1393,-0.1398,-0.1408,-0.1396,-0.1395,-0.1388,-0.1394,-0.1393,-0.1351,-0.1351,-0.14,-0.1408,0,0,0,-0.1387,-0.1382,-0.1385,-0.1385,-0.1398,-0.1399,-0.1403,-0.1396,-0.1403,-0.1394,-0.1393,-0.1352,-0.1351,-0.14,-0.1407,-0.1171,0,0,0,-0.1371,-0.138,-0.1384,-0.14,-0.1398,-0.1419,-0.1404,-0.1407,-0.1401,-0.1394,-0.1351,-0.1351,-0.1399,-0.1406,-0.1174,-0.0707,-0.0655,0,0,-0.138,-0.138,-0.1394,-0.1399,-0.1436,-0.1416,-0.1429,-0.141,-0.1385,-0.1354,-0.1353,-0.1401,-0.1407,-0.1172,-0.0684,-0.0631,0,0,0,-0.1396,-0.1412,-0.1422,-0.1443,-0.1448,-0.1457,-0.1431,-0.1415,-0.1394,-0.1381,-0.1378,-0.1379,-0.1228,-0.0954,-0.0913,-0.0853,-0.1349,-0.1349,-0.1349,-0.1389,-0.1417,-0.1456,-0.1487,-0.1489,-0.1475,-0.1472,-0.144,-0.1405,-0.1395,-0.1404,-0.1244,-0.0959,-0.0921,-0.0871,-0.1392,-0.1393,-0.1393,-0.1393,-0.1439,-0.1415,-0.1502,-0.1555,-0.155,-0.1547,-0.151,-0.1483,-0.1362,-0.1417,-0.1264,-0.1006,-0.0877,-0.084,-0.1396,-0.1395,-0.1395,-0.1395,-0.1394,-0.143,-0.1386,-0.1502,-0.1498,-0.1515,-0.1497,-0.1297,-0.1337,-0.137,-0.1308,-0.078,-0.0773,-0.0735,-0.1131,-0.113,-0.1129,-0.1128,-0.1127,-0.1127,-0.1254,-0.1358,-0.1279,-0.1348,-0.1247,-0.1136,-0.1066,-0.0911,-0.0726,-0.075,-0.0743,-0.0638,-0.116,-0.1164,-0.1112,-0.1115,-0.1117,-0.1118,-0.1119,-0.0942,-0.0997,-0.0863,-0.0775,-0.058,-0.0401,-0.0377,-0.0056,0.007,0.0227,0.0025,-0.0383,-0.0269,-0.0297,-0.0277,0.0002,0.0002,0.0002,0.0002,-0.0589,-0.0663,-0.0377,-0.0174,0.0052,0.0003,0.0436,0.0579,0.0636,0.0648,0.0503,0.0481,0.0433,0.0578,0.053,0.0563,0.1048,0.1049,0.1049,-0.0182,-0.022,0.0073,0.0069,0.0301,0.0398,0.0633,0.0813,0.1018,0.107,0.0482,0.0439,0.0359,0.028,0.0461,0.0389,0.0424,0,0]},{"header":{"parameterUnit":"m.s-1","parameterCategory":2,"la1":30.2992,"la2":30.254,"lo1":-89.0895,"lo2":-89.0443,"dy":0.0025,"dx":0.0025,"nx":19,"ny":19,"refTime":"2026-05-20T21:00:00:Z","depth":"0","parameterNumber":3,"parameterNumberName":"V-component_of_CURRENTS"},"data":[0,0,0,-0.0216,-0.0215,-0.0151,-0.0151,-0.0033,-0.0032,0,0,0,0,0,0,0,0,0,0,0,-0.0241,-0.0241,-0.0216,-0.0215,-0.0151,-0.0151,-0.0033,-0.0032,0,0,0,0,0,0,0,0,0,0,0,-0.0241,-0.0241,-0.0241,-0.0215,-0.0151,-0.0151,-0.0034,-0.0088,0,0,0,0,0,0,0,0,0,0,-0.0154,-0.0192,-0.0241,-0.0241,-0.0215,-0.0151,-0.0151,-0.0091,-0.0085,-0.0055,0,-0.0053,0,-0.0042,-0.0024,-0.0024,0,0,0,-0.0205,-0.0197,-0.0175,-0.0241,-0.0214,-0.0152,-0.0177,-0.0088,-0.0081,-0.0046,-0.0052,-0.0047,-0.004,-0.0023,-0.0023,0.0012,0.0012,0,0,-0.0209,-0.0229,-0.018,-0.0171,-0.0207,-0.0179,-0.0175,-0.0084,-0.0083,-0.0051,-0.0045,-0.0038,-0.0023,-0.0022,0.0013,0.0012,0,0,0,-0.0226,-0.0232,-0.0213,-0.0176,-0.0168,-0.0178,-0.0173,-0.0087,-0.0079,-0.0043,-0.0036,-0.0022,-0.0021,0.0013,0.0013,-0.0102,0,0,0,-0.0227,-0.0242,-0.0215,-0.0226,-0.017,-0.0133,-0.0178,-0.0086,-0.0075,-0.0037,-0.0022,-0.0019,0.0014,0.0013,-0.0098,0.0022,0,0,0,-0.0242,-0.0244,-0.0239,-0.0227,-0.0203,-0.0134,-0.0121,-0.0083,-0.0071,-0.0024,-0.0019,0.0014,0.0013,-0.0094,0.0023,0.0294,0,0,0,-0.0261,-0.0292,-0.0239,-0.0274,-0.0204,-0.0199,-0.0122,-0.0099,-0.0067,-0.0021,0.0014,0.0013,-0.0093,0.0024,0.029,0.0522,0.0559,0,0,-0.0319,-0.03,-0.0322,-0.0274,-0.0313,-0.0206,-0.0227,-0.0144,-0.0073,-0.001,-0.0009,-0.0099,0.0023,0.0293,0.0453,0.0494,0,0,0,-0.0353,-0.0383,-0.038,-0.0389,-0.0346,-0.0281,-0.0229,-0.0183,-0.013,-0.006,-0.0091,-0.0005,0.0169,0.0297,0.0327,0.0314,0.0007,0.0007,0.0007,-0.0463,-0.0456,-0.0477,-0.0464,-0.0438,-0.0352,-0.0285,-0.0206,-0.0197,-0.0192,-0.0103,0.0041,0.0159,0.019,0.0163,-0.0193,-0.0193,-0.0193,-0.0194,-0.054,-0.048,-0.0512,-0.0525,-0.0446,-0.0421,-0.03,-0.0275,-0.0089,-0.0176,-0.0005,0.0163,0.0219,0.0179,-0.0201,-0.02,-0.0199,-0.0198,-0.0198,-0.0558,-0.048,-0.0551,-0.048,-0.0401,-0.0314,-0.0041,-0.0021,-0.0033,0.0051,0.0424,0.0428,0.0426,0.0188,0.0189,0.0191,0.0192,0.0193,0.0194,-0.0398,-0.0454,-0.0376,-0.0331,-0.0215,-0.0004,0.0223,0.0401,0.057,0.0491,0.0494,0.0486,0.0166,0.0189,0.0219,0.0215,0.0211,0.0209,0.0207,-0.0146,-0.0198,-0.0075,0.0014,0.0271,0.0495,0.0689,0.1064,0.1241,0.1354,0.0986,0.0765,0.0922,0.0897,0.0942,0.1169,0.1169,0.1169,0.1169,0.0102,0.0065,0.0279,0.0462,0.0687,0.0776,0.1192,0.146,0.1541,0.1469,0.1361,0.1172,0.1134,0.129,0.1256,0.1303,0.1615,0.1615,0.1616,0.0402,0.0387,0.0604,0.0653,0.0863,0.1013,0.1273,0.1565,0.1653,0.1618,0.1297,0.1278,0.0962,0.0905,0.1107,0.1061,0.1123,0,0]}],[{"header":{"parameterUnit":"m.s-1","parameterCategory":2,"la1":30.2992,"la2":30.254,"lo1":-89.0895,"lo2":-89.0443,"dy":0.0025,"dx":0.0025,"nx":19,"ny":19,"refTime":"2026-05-20T21:00:00:Z","depth":"2","parameterNumber":2,"parameterNumberName":"U-component_of_CURRENTS"},"data":[0,0,0,-0.1303,-0.1304,-0.1335,-0.1335,-0.1312,-0.1312,0,0,0,0,0,0,0,0,0,0,0,-0.1283,-0.1283,-0.1303,-0.1304,-0.1335,-0.1335,-0.1312,-0.1312,0,0,0,0,0,0,0,0,0,0,0,-0.1283,-0.1283,-0.1283,-0.1304,-0.1335,-0.1335,-0.1313,-0.1304,0,0,0,0,0,0,0,0,0,0,-0.1281,-0.127,-0.1283,-0.1283,-0.1305,-0.1335,-0.1335,-0.1304,-0.1304,-0.1282,0,-0.1283,0,-0.1301,-0.1309,-0.1309,0,0,0,-0.1301,-0.127,-0.1283,-0.1283,-0.1305,-0.1335,-0.132,-0.1305,-0.1305,-0.1282,-0.1283,-0.1283,-0.1301,-0.1309,-0.1309,-0.1262,-0.1262,0,0,-0.1299,-0.1283,-0.1283,-0.1283,-0.1307,-0.1319,-0.1321,-0.1306,-0.1299,-0.1283,-0.1283,-0.1301,-0.1309,-0.1309,-0.1263,-0.1262,0,0,0,-0.1297,-0.1282,-0.1297,-0.1283,-0.1296,-0.132,-0.1322,-0.1299,-0.1305,-0.1283,-0.13,-0.1309,-0.1308,-0.1263,-0.1262,-0.133,0,0,0,-0.1295,-0.1281,-0.1296,-0.1286,-0.1296,-0.1306,-0.1316,-0.1306,-0.1306,-0.13,-0.1309,-0.1308,-0.1263,-0.1263,-0.1329,-0.1378,0,0,0,-0.1282,-0.128,-0.1283,-0.1285,-0.1302,-0.1307,-0.1313,-0.1307,-0.1316,-0.1309,-0.1308,-0.1263,-0.1263,-0.1328,-0.1375,-0.1287,0,0,0,-0.1266,-0.1274,-0.1282,-0.1296,-0.1302,-0.1325,-0.1313,-0.1321,-0.1317,-0.1309,-0.1263,-0.1262,-0.1327,-0.1373,-0.1286,-0.1187,-0.118,0,0,-0.1271,-0.1274,-0.1285,-0.1294,-0.1332,-0.1321,-0.1341,-0.1329,-0.1298,-0.1264,-0.1263,-0.1329,-0.1375,-0.1286,-0.1157,-0.1151,0,0,0,-0.1285,-0.1297,-0.1306,-0.133,-0.1343,-0.1374,-0.1349,-0.1332,-0.1313,-0.1294,-0.1299,-0.1325,-0.1267,-0.1207,-0.1201,-0.126,-0.126,-0.126,-0.126,-0.1273,-0.1302,-0.1329,-0.1364,-0.1389,-0.1397,-0.1408,-0.1378,-0.1327,-0.1319,-0.1358,-0.1313,-0.125,-0.1245,-0.132,-0.132,-0.1321,-0.1321,-0.1321,-0.1288,-0.1289,-0.1361,-0.1399,-0.1439,-0.1458,-0.1471,-0.1446,-0.139,-0.1379,-0.1317,-0.1256,-0.1242,-0.1326,-0.1325,-0.1324,-0.1324,-0.1323,-0.1323,-0.1264,-0.1261,-0.1312,-0.1361,-0.1435,-0.1476,-0.1496,-0.1499,-0.1451,-0.1439,-0.1251,-0.1248,-0.1336,-0.1351,-0.1351,-0.1351,-0.1351,-0.1351,-0.1351,-0.1174,-0.123,-0.1227,-0.1297,-0.1327,-0.1398,-0.1461,-0.143,-0.1345,-0.1313,-0.131,-0.1321,-0.132,-0.1333,-0.1348,-0.1349,-0.1349,-0.1349,-0.1349,-0.1083,-0.1087,-0.1087,-0.1102,-0.1171,-0.1176,-0.1298,-0.1252,-0.1197,-0.1126,-0.1201,-0.1205,-0.1155,-0.1157,-0.1164,-0.1133,-0.1133,-0.1133,-0.1133,-0.0977,-0.0988,-0.096,-0.0967,-0.0997,-0.1078,-0.0991,-0.0959,-0.0976,-0.097,-0.0978,-0.0973,-0.0985,-0.0925,-0.0933,-0.0934,-0.0844,-0.0844,-0.0844,-0.0888,-0.0902,-0.0855,-0.0884,-0.0922,-0.0952,-0.0807,-0.0631,-0.0642,-0.0834,-0.0951,-0.111,-0.1123,-0.1134,-0.1057,-0.1064,-0.1073,0,0]},{"header":{"parameterUnit":"m.s-1","parameterCategory":2,"la1":30.2992,"la2":30.254,"lo1":-89.0895,"lo2":-89.0443,"dy":0.0025,"dx":0.0025,"nx":19,"ny":19,"refTime":"2026-05-20T21:00:00:Z","depth":"2","parameterNumber":3,"parameterNumberName":"V-component_of_CURRENTS"},"data":[0,0,0,-0.0297,-0.0296,-0.0233,-0.0233,-0.0135,-0.0134,0,0,0,0,0,0,0,0,0,0,0,-0.0321,-0.0321,-0.0297,-0.0296,-0.0233,-0.0233,-0.0135,-0.0134,0,0,0,0,0,0,0,0,0,0,0,-0.0321,-0.0321,-0.0321,-0.0296,-0.0233,-0.0233,-0.0135,-0.0185,0,0,0,0,0,0,0,0,0,0,-0.0247,-0.0281,-0.0321,-0.0321,-0.0295,-0.0233,-0.0233,-0.0188,-0.0182,-0.0161,0,-0.0158,0,-0.0146,-0.0128,-0.0128,0,0,0,-0.0288,-0.0286,-0.0264,-0.0321,-0.0295,-0.0233,-0.0259,-0.0185,-0.0178,-0.0154,-0.0157,-0.0153,-0.0144,-0.0127,-0.0127,-0.006,-0.006,0,0,-0.0291,-0.0311,-0.0269,-0.0261,-0.0287,-0.0261,-0.0257,-0.0181,-0.018,-0.0157,-0.0151,-0.0142,-0.0127,-0.0126,-0.006,-0.006,0,0,0,-0.0307,-0.0313,-0.0294,-0.0265,-0.0255,-0.0259,-0.0255,-0.0183,-0.0176,-0.015,-0.0141,-0.0126,-0.0125,-0.006,-0.006,-0.0168,0,0,0,-0.0308,-0.0322,-0.0296,-0.0307,-0.0257,-0.0222,-0.0259,-0.0181,-0.0172,-0.0142,-0.0126,-0.0124,-0.006,-0.006,-0.0165,-0.0171,0,0,0,-0.0323,-0.0324,-0.0318,-0.0308,-0.0283,-0.0223,-0.0211,-0.0179,-0.0167,-0.0128,-0.0124,-0.006,-0.006,-0.0162,-0.0167,-0.0083,0,0,0,-0.0341,-0.0357,-0.0319,-0.0333,-0.0284,-0.0259,-0.0212,-0.0185,-0.0157,-0.0126,-0.006,-0.006,-0.0162,-0.0165,-0.0082,-0.0082,-0.0084,0,0,-0.0375,-0.0361,-0.037,-0.0335,-0.0338,-0.0266,-0.0257,-0.0199,-0.0145,-0.0082,-0.008,-0.0166,-0.0167,-0.0083,-0.0076,-0.0078,0,0,0,-0.039,-0.0402,-0.0394,-0.0387,-0.0345,-0.0317,-0.0246,-0.0209,-0.0165,-0.0128,-0.0133,-0.0128,-0.0072,-0.0071,-0.0073,-0.0059,-0.0059,-0.0059,-0.0059,-0.0461,-0.0445,-0.0463,-0.0437,-0.0419,-0.0345,-0.0313,-0.0246,-0.0196,-0.0189,-0.0195,-0.0171,-0.0176,-0.0175,-0.0189,-0.019,-0.019,-0.019,-0.0191,-0.0527,-0.056,-0.0523,-0.0538,-0.0493,-0.0475,-0.0382,-0.0341,-0.0242,-0.0236,-0.0177,-0.016,-0.0183,-0.0198,-0.0197,-0.0196,-0.0195,-0.0194,-0.0194,-0.0589,-0.0615,-0.0598,-0.063,-0.0627,-0.0566,-0.0537,-0.0451,-0.0311,-0.0284,-0.0172,-0.017,-0.019,-0.0227,-0.0227,-0.0227,-0.0227,-0.0226,-0.0226,-0.069,-0.0678,-0.0718,-0.0742,-0.075,-0.0749,-0.0614,-0.0515,-0.0325,-0.0234,-0.0233,-0.018,-0.0178,-0.0187,-0.0222,-0.0222,-0.0223,-0.0223,-0.0224,-0.083,-0.0818,-0.0866,-0.088,-0.0896,-0.0872,-0.0749,-0.0494,-0.0334,-0.0222,-0.0175,-0.0178,-0.0109,-0.0107,-0.011,-0.0122,-0.0122,-0.0122,-0.0122,-0.0936,-0.0936,-0.0973,-0.0983,-0.0994,-0.0921,-0.0728,-0.0502,-0.0267,-0.0171,-0.0169,-0.0221,-0.0224,-0.0162,-0.0159,-0.0164,-0.019,-0.019,-0.019,-0.1039,-0.1019,-0.1047,-0.1023,-0.1014,-0.0926,-0.0719,-0.0409,-0.0163,-0.0195,-0.0202,-0.0123,-0.0197,-0.0202,-0.0103,-0.0101,-0.0105,0,0]}],[{"header":{"parameterUnit":"m.s-1","parameterCategory":2,"la1":30.2992,"la2":30.254,"lo1":-89.0895,"lo2":-89.0443,"dy":0.0025,"dx":0.0025,"nx":19,"ny":19,"refTime":"2026-05-20T21:00:00:Z","depth":"4","parameterNumber":2,"parameterNumberName":"U-component_of_CURRENTS"},"data":[0,0,0,-0.105,-0.1052,-0.1145,-0.1145,-0.1156,-0.1156,0,0,0,0,0,0,0,0,0,0,0,-0.1013,-0.1014,-0.105,-0.1052,-0.1145,-0.1145,-0.1156,-0.1156,0,0,0,0,0,0,0,0,0,0,0,-0.1013,-0.1014,-0.1015,-0.1052,-0.1144,-0.1145,-0.1156,-0.1112,0,0,0,0,0,0,0,0,0,0,-0.1035,-0.102,-0.1014,-0.1015,-0.1053,-0.1144,-0.1145,-0.1111,-0.1115,-0.1084,0,-0.1102,0,-0.1129,-0.1154,-0.1154,0,0,0,-0.105,-0.1017,-0.1041,-0.1015,-0.1054,-0.1144,-0.1102,-0.1114,-0.1118,-0.1088,-0.1102,-0.1104,-0.113,-0.1154,-0.1154,-0.1115,-0.1115,0,0,-0.1045,-0.1028,-0.1039,-0.1044,-0.108,-0.1099,-0.1105,-0.1118,-0.112,-0.1103,-0.1105,-0.113,-0.1154,-0.1154,-0.1116,-0.1115,0,0,0,-0.1032,-0.1025,-0.1051,-0.1042,-0.1068,-0.1102,-0.1109,-0.112,-0.1129,-0.1105,-0.113,-0.1154,-0.1153,-0.1116,-0.1116,-0.1117,0,0,0,-0.1028,-0.1017,-0.1048,-0.1039,-0.1069,-0.1111,-0.111,-0.1128,-0.1131,-0.113,-0.1154,-0.1153,-0.1116,-0.1116,-0.1118,-0.114,0,0,0,-0.1009,-0.1015,-0.1027,-0.1038,-0.108,-0.1112,-0.1122,-0.113,-0.1145,-0.1154,-0.1153,-0.1116,-0.1116,-0.1118,-0.114,-0.1133,0,0,0,-0.0987,-0.1,-0.1027,-0.1047,-0.108,-0.1113,-0.1123,-0.1151,-0.116,-0.1153,-0.1116,-0.1116,-0.1118,-0.114,-0.1133,-0.0995,0,0,0,-0.0987,-0.0999,-0.101,-0.1037,-0.1062,-0.11,-0.1113,-0.1134,-0.1135,-0.1105,-0.1105,-0.1118,-0.114,-0.1133,-0.0961,0,0,0,0,-0.1,-0.1001,-0.1015,-0.1039,-0.1075,-0.1104,-0.1123,-0.1126,-0.1124,-0.1139,-0.1105,-0.1119,-0.1115,-0.1033,-0.1113,-0.1113,-0.1113,-0.1113,-0.1113,-0.0962,-0.0986,-0.1004,-0.1032,-0.1058,-0.1097,-0.111,-0.1112,-0.1106,-0.1103,-0.111,-0.1096,-0.1007,-0.1087,-0.1087,-0.1087,-0.1087,-0.1087,-0.1087,-0.0953,-0.0958,-0.0999,-0.1027,-0.1064,-0.108,-0.1099,-0.1102,-0.1094,-0.1097,-0.1092,-0.1028,-0.1087,-0.1087,-0.1087,-0.1087,-0.1087,-0.1087,-0.1087,-0.0932,-0.0932,-0.0972,-0.1005,-0.1047,-0.1082,-0.1084,-0.1109,-0.111,-0.1107,-0.1016,-0.11,-0.1112,-0.1104,-0.1104,-0.1104,-0.1104,-0.1104,-0.1104,-0.0884,-0.0918,-0.0923,-0.0971,-0.0991,-0.1028,-0.1081,-0.1073,-0.1102,-0.1016,-0.1118,-0.1102,-0.1101,-0.1112,-0.1105,-0.1105,-0.1105,-0.1104,-0.1104,-0.0814,-0.0835,-0.0838,-0.0854,-0.0885,-0.0906,-0.0991,-0.0977,-0.0957,-0.092,-0.0951,-0.0958,-0.0949,-0.0952,-0.0958,-0.0905,-0.0903,-0.0901,0,-0.0747,-0.076,-0.0749,-0.075,-0.0741,-0.0823,-0.0766,-0.0801,-0.0838,-0.0804,-0.0957,-0.0993,-0.0997,-0.0988,-0.0988,-0.0994,0,0,0,-0.0676,-0.0694,-0.0664,-0.0686,-0.0673,-0.0685,-0.0749,-0.0719,-0.0835,-0.0794,-0.0856,-0.0868,-0.102,-0.1107,-0.1112,-0.1111,-0.1129,0,0]},{"header":{"parameterUnit":"m.s-1","parameterCategory":2,"la1":30.2992,"la2":30.254,"lo1":-89.0895,"lo2":-89.0443,"dy":0.0025,"dx":0.0025,"nx":19,"ny":19,"refTime":"2026-05-20T21:00:00:Z","depth":"4","parameterNumber":3,"parameterNumberName":"V-component_of_CURRENTS"},"data":[0,0,0,-0.0228,-0.0228,-0.0189,-0.0188,-0.0114,-0.0114,0,0,0,0,0,0,0,0,0,0,0,-0.0245,-0.0245,-0.0228,-0.0228,-0.0189,-0.0188,-0.0114,-0.0114,0,0,0,0,0,0,0,0,0,0,0,-0.0245,-0.0245,-0.0245,-0.0228,-0.0189,-0.0188,-0.0115,-0.0148,0,0,0,0,0,0,0,0,0,0,-0.0189,-0.0214,-0.0245,-0.0245,-0.0227,-0.0189,-0.0188,-0.015,-0.0146,-0.0127,0,-0.0129,0,-0.0121,-0.0109,-0.0109,0,0,0,-0.022,-0.0218,-0.0204,-0.0245,-0.0227,-0.0189,-0.0204,-0.0148,-0.0144,-0.0122,-0.0128,-0.0125,-0.0119,-0.0108,-0.0108,-0.0004,-0.0003,0,0,-0.0223,-0.0238,-0.0207,-0.0201,-0.0226,-0.0206,-0.0203,-0.0146,-0.0146,-0.0128,-0.0123,-0.0118,-0.0108,-0.0107,-0.0004,-0.0004,0,0,0,-0.0234,-0.0239,-0.0227,-0.0204,-0.02,-0.0205,-0.0202,-0.0149,-0.0144,-0.0123,-0.0117,-0.0108,-0.0107,-0.0005,-0.0004,0.0022,0,0,0,-0.0235,-0.0246,-0.0228,-0.0237,-0.0201,-0.0178,-0.0206,-0.0148,-0.0141,-0.0118,-0.0107,-0.0106,-0.0006,-0.0005,0.002,-0.0049,0,0,0,-0.0245,-0.0247,-0.0245,-0.0238,-0.0223,-0.0179,-0.0171,-0.0147,-0.0138,-0.0109,-0.0106,-0.0006,-0.0005,0.0018,-0.005,-0.0112,0,0,0,-0.0258,-0.0255,-0.0245,-0.0238,-0.0224,-0.0178,-0.0171,-0.0145,-0.0122,-0.0107,-0.0006,-0.0004,0.0018,-0.005,-0.0111,-0.015,0,0,0,-0.0259,-0.0256,-0.0249,-0.0239,-0.0188,-0.0182,-0.0112,-0.009,-0.0089,-0.0023,-0.0021,0.0021,-0.005,-0.0112,-0.0064,0,0,0,0,-0.0252,-0.0235,-0.0224,-0.0191,-0.0165,-0.0127,-0.0076,-0.0054,-0.0005,-0.0069,0.0043,-0.0004,-0.0044,-0.0061,0.0003,0.0003,0.0002,0.0002,0.0002,-0.025,-0.0221,-0.0213,-0.0163,-0.0133,-0.0065,-0.0038,0.0007,0.0037,0.0064,0.0038,0.0025,0.0018,0.0103,0.0103,0.0104,0.0104,0.0104,0.0104,-0.0268,-0.0299,-0.0231,-0.0223,-0.0164,-0.0111,-0.0011,0.0028,0.0061,0.0092,0.0054,-0.0004,0.0107,0.0106,0.0106,0.0106,0.0105,0.0105,0.0105,-0.0323,-0.035,-0.0327,-0.0327,-0.0294,-0.0209,-0.0212,-0.0117,-0.0004,0.0,-0.0073,-0.0004,-0.0035,-0.0029,-0.003,-0.003,-0.0031,-0.0031,-0.0031,-0.0455,-0.0426,-0.0459,-0.046,-0.0461,-0.0461,-0.0374,-0.0338,-0.0222,-0.0118,-0.0045,-0.0023,-0.0019,-0.0045,-0.004,-0.0038,-0.0037,-0.0036,-0.0036,-0.0567,-0.0573,-0.0608,-0.0621,-0.0628,-0.0618,-0.0573,-0.0475,-0.0446,-0.0373,-0.0172,-0.0163,-0.0211,-0.0204,-0.0239,-0.0291,-0.0292,-0.0293,0,-0.0666,-0.067,-0.0704,-0.0715,-0.0727,-0.0681,-0.0622,-0.0571,-0.0433,-0.0384,-0.0429,-0.0204,-0.0195,-0.0251,-0.0245,-0.0288,0,0,0,-0.0738,-0.0732,-0.0758,-0.0753,-0.0735,-0.0635,-0.0594,-0.0554,-0.0428,-0.0448,-0.0308,-0.0304,-0.0251,-0.0064,-0.0119,-0.0114,-0.0162,0,0]}]]